[[{"header":{"parameterUnit":"m.s-1","parameterCategory":1,"la1":30.2991,"la2":30.254,"lo1":-89.0895,"lo2":-89.0444,"dy":0.0017,"dx":0.0017,"nx":28,"ny":28,"refTime":"2025-03-09T09:00:00:Z","depth":0,"parameterNumber":2,"parameterNumberName":"U-component_of_WINDS"},"data":[0,0,0,0,0,0,0,0,0,0,0,0,0,0,0,0,0,0,0,0,0,0,0,0,0,0,0,0,0,0,0,0,0,0,0,0,0,0,0,0,0,0,0,0,0,0,0,0,0,0,0,0,0,0,0,0,0,0,2.368,2.368,0,2.3733,2.3733,2.3734,2.3732,2.3731,2.3731,2.373,2.3787,2.3789,2.3791,0,0,0,0,0,0,0,0,0,0,0,0,0,2.3581,2.3583,2.368,2.368,2.3681,2.3733,2.3733,2.3734,2.3732,2.3731,2.373,2.373,2.3786,2.3789,2.3791,0,0,0,0,0,0,0,0,0,0,0,0,0,2.3628,2.3584,2.368,2.3686,2.3687,2.3733,2.3733,2.3734,2.3732,2.3731,2.373,2.3729,2.3785,2.3788,2.3792,2.3834,0,0,2.3802,2.3803,0,0,0,0,0,0,0,0,2.3625,2.3632,2.3685,2.3686,2.3687,2.3725,2.3719,2.3768,2.3733,2.3715,2.373,2.3729,2.3767,2.3772,2.3784,2.3837,2.3839,2.3802,2.3804,2.3805,2.3806,0,0,0,0,0,0,0,2.3622,2.3629,2.3701,2.3685,2.3687,2.3688,2.3693,2.3729,2.3747,2.3717,2.3717,2.3723,2.3768,2.3781,2.3786,2.384,2.3802,2.3805,2.3807,2.3808,2.3935,2.3936,0,0,0,0,0,0,2.3617,2.3627,2.3699,2.3702,2.3653,2.3691,2.3697,2.3714,2.3747,2.375,2.3724,2.3723,2.3776,2.3782,2.3788,2.3842,2.3805,2.3808,2.381,2.3934,2.3935,2.3937,0,0,0,0,0,0,2.3615,2.3623,2.3697,2.3665,2.3674,2.3694,2.3713,2.3715,2.3729,2.3752,2.3755,2.3734,2.3775,2.3783,2.3823,2.3844,2.381,2.3813,2.3932,2.3934,2.3936,2.3951,0,0,0,0,0,0,2.3612,2.3623,2.3638,2.3665,2.3676,2.373,2.3714,2.3717,2.3734,2.3733,2.3762,2.3766,2.3775,2.3819,2.3827,2.3848,2.3816,2.393,2.3933,2.3935,2.3948,2.3953,2.3957,0,0,0,0,0,2.3609,2.364,2.3639,2.3647,2.3695,2.3732,2.3738,2.3747,2.3736,2.3752,2.3768,2.3765,2.3841,2.3823,2.3832,2.3855,2.3929,2.3932,2.3935,2.3947,2.3952,2.3957,0,0,0,0,0,0,2.3614,2.3643,2.3642,2.3683,2.3705,2.3731,2.3752,2.3752,2.3778,2.3776,2.3787,2.3794,2.3835,2.3849,2.3828,2.39,2.3884,2.3889,2.3889,2.3895,2.3899,2.3895,2.3818,0,0,0,0,0,2.362,2.3647,2.3671,2.3704,2.3715,2.3732,2.3748,2.3753,2.3777,2.3786,2.3804,2.3828,2.3858,2.3877,2.3905,2.395,2.3959,2.3971,2.3975,2.3979,2.3983,2.4012,2.4018,2.3947,2.3947,2.3947,0,0,2.3633,2.3652,2.3668,2.3706,2.3724,2.3753,2.374,2.377,2.3792,2.3791,2.3831,2.3845,2.3873,2.3917,2.3937,2.393,2.4005,2.3983,2.3985,2.3988,2.4016,2.4022,2.4028,2.3949,2.3949,2.3948,0,0,2.3671,2.3687,2.3718,2.3737,2.3764,2.3775,2.3783,2.381,2.3819,2.3859,2.386,2.3888,2.3937,2.3958,2.3975,2.4024,2.4024,2.4033,2.4055,2.4083,2.4089,2.4094,2.4114,2.4121,2.4037,2.4037,2.4037,0,2.3684,2.3726,2.3734,2.3766,2.3784,2.3784,2.3818,2.3835,2.387,2.3884,2.3875,2.3939,2.3957,2.4008,2.402,2.4033,2.4044,2.403,2.4087,2.4092,2.4097,2.4117,2.4124,2.4038,2.4038,2.4038,2.4038,0,2.3742,2.3771,2.3793,2.3827,2.3848,2.388,2.3895,2.3915,2.3919,2.3932,2.3975,2.3997,2.4032,2.4044,2.4048,2.4096,2.4091,2.4084,2.4069,2.4105,2.4124,2.4131,2.404,2.404,2.4039,2.4039,0,0,2.3784,2.3824,2.3832,2.3849,2.388,2.3904,2.3938,2.3971,2.3989,2.4014,2.4044,2.4087,2.4082,2.4102,2.4108,2.4132,2.4174,2.4123,2.4124,2.4134,2.4232,2.4238,2.4246,2.4174,2.4175,2.4176,2.423,0,2.3827,2.3885,2.3895,2.3946,2.3976,2.3978,2.4008,2.4031,2.4045,2.4073,2.4088,2.412,2.411,2.4122,2.4146,2.4164,2.4194,2.416,2.4204,2.4205,2.4198,2.4255,2.4261,2.431,2.4237,2.4238,2.4239,0,2.3884,2.3911,2.3966,2.3996,2.4009,2.4035,2.4068,2.4094,2.4122,2.413,2.4153,2.4158,2.4195,2.4177,2.4231,2.4207,2.4226,2.4238,2.424,2.4246,2.4225,2.4264,2.4326,2.4335,2.425,2.4249,2.4249,0,2.3913,2.3963,2.4002,2.4017,2.4052,2.4071,2.4087,2.4114,2.4134,2.4163,2.4177,2.421,2.4229,2.4256,2.4271,2.4256,2.4324,2.4306,2.4334,2.4334,2.4349,2.4348,2.4417,2.4358,2.4358,2.4358,2.4358,0,2.396,2.3994,2.4016,2.4041,2.408,2.4092,2.4131,2.4147,2.4171,2.4201,2.4205,2.4233,2.425,2.4281,2.4293,2.4337,2.4344,2.4354,2.4357,2.4355,2.4354,2.4368,2.4366,2.436,2.4359,2.4359,2.4359,0,2.3999,2.4014,2.4058,2.4089,2.4098,2.4126,2.4153,2.4178,2.4192,2.423,2.4239,2.4262,2.43,2.4317,2.4362,2.4371,2.4421,2.4421,2.4412,2.4413,2.4441,2.4439,2.4523,2.4536,2.4467,2.4467,2.4468,0,2.4029,2.4055,2.4089,2.4109,2.4126,2.4157,2.4179,2.4192,2.4215,2.425,2.4272,2.4309,2.434,2.44,2.4422,2.4458,2.4459,2.4486,2.4465,2.4463,2.4463,2.4462,2.4466,2.4491,2.4491,2.4492,2.4492,0,2.4082,2.4089,2.4119,2.4152,2.4178,2.4205,2.4231,2.4248,2.4266,2.4292,2.433,2.4353,2.4401,2.4439,2.4477,2.4495,2.4498,2.4499,2.4508,2.4506,2.4501,2.4507,2.4425,2.4497,2.4497,2.4496,2.4496,2.4496,2.4119,2.4143,2.4172,2.4206,2.4228,2.4253,2.4279,2.4298,2.4329,2.4369,2.4375,2.4417,2.4447,2.4498,2.4518,2.4552,2.4546,2.4558,2.4562,2.4565,2.4568,2.4494,2.4559,2.4559,2.4559,2.4559,2.4559,0,2.4174,2.4193,2.4224,2.4262,2.4289,2.4288,2.4319,2.4343,2.4379,2.4406,2.4437,2.4482,2.452,2.4545,2.4584,2.4607,2.4609,2.4617,2.4616,2.4621,2.457,2.4559,2.4614,2.4614,2.4614,2.4614,2.4614,2.4614,2.4206,2.4249,2.4259,2.4314,2.4333,2.4373,2.4391,2.4416,2.4438,2.4489,2.452,2.4536,2.4564,2.4605,2.4641,2.4648,2.4663,2.4671,2.4678,2.463,2.4624,2.4619,2.4609,2.4673,2.4674,2.4727,2.4727,2.4727]},{"header":{"parameterUnit":"m.s-1","parameterCategory":1,"la1":30.2991,"la2":30.254,"lo1":-89.0895,"lo2":-89.0444,"dy":0.0017,"dx":0.0017,"nx":28,"ny":28,"refTime":"2025-03-09T09:00:00:Z","depth":0,"parameterNumber":3,"parameterNumberName":"V-component_of_WINDS"},"data":[0,0,0,0,0,0,0,0,0,0,0,0,0,0,0,0,0,0,0,0,0,0,0,0,0,0,0,0,0,0,0,0,0,0,0,0,0,0,0,0,0,0,0,0,0,0,0,0,0,0,0,0,0,0,0,0,0,0,-3.3158,-3.3159,0,-3.3197,-3.3197,-3.3198,-3.326,-3.3261,-3.3262,-3.3263,-3.33,-3.33,-3.3299,0,0,0,0,0,0,0,0,0,0,0,0,0,-3.3137,-3.3137,-3.3158,-3.3159,-3.3159,-3.3197,-3.3197,-3.3198,-3.326,-3.3261,-3.3262,-3.3264,-3.33,-3.33,-3.3299,0,0,0,0,0,0,0,0,0,0,0,0,0,-3.3158,-3.3137,-3.3158,-3.3194,-3.3198,-3.3197,-3.3197,-3.3198,-3.3259,-3.3261,-3.3263,-3.3264,-3.33,-3.33,-3.3299,-3.3265,0,0,-3.3299,-3.3299,0,0,0,0,0,0,0,0,-3.3157,-3.3159,-3.3189,-3.3192,-3.3196,-3.3225,-3.3204,-3.322,-3.3259,-3.3236,-3.3263,-3.3265,-3.3273,-3.3275,-3.3279,-3.3266,-3.3268,-3.3299,-3.3299,-3.3299,-3.3299,0,0,0,0,0,0,0,-3.3155,-3.3157,-3.3173,-3.3189,-3.3194,-3.3209,-3.3214,-3.3207,-3.3244,-3.3238,-3.3243,-3.3247,-3.3276,-3.3279,-3.328,-3.3268,-3.3299,-3.3299,-3.3299,-3.3299,-3.3233,-3.3231,0,0,0,0,0,0,-3.3149,-3.3156,-3.3172,-3.3175,-3.318,-3.3208,-3.3213,-3.3214,-3.3245,-3.3251,-3.3245,-3.3249,-3.3278,-3.328,-3.3282,-3.3245,-3.3299,-3.3299,-3.3299,-3.3235,-3.3233,-3.3231,0,0,0,0,0,0,-3.3148,-3.3149,-3.3171,-3.3167,-3.317,-3.3206,-3.3207,-3.3214,-3.3217,-3.325,-3.3257,-3.3241,-3.328,-3.3282,-3.3269,-3.3247,-3.3299,-3.3299,-3.3237,-3.3234,-3.3232,-3.317,0,0,0,0,0,0,-3.3147,-3.3149,-3.3136,-3.3166,-3.317,-3.3157,-3.3206,-3.3214,-3.3217,-3.3223,-3.3249,-3.3254,-3.3281,-3.3269,-3.3269,-3.3248,-3.3298,-3.3239,-3.3235,-3.3233,-3.3174,-3.3166,-3.3158,0,0,0,0,0,-3.3146,-3.3115,-3.3135,-3.3136,-3.3155,-3.3156,-3.3159,-3.3191,-3.3215,-3.3203,-3.3225,-3.3254,-3.325,-3.3267,-3.3268,-3.3246,-3.324,-3.3236,-3.3233,-3.3178,-3.3167,-3.3159,0,0,0,0,0,0,-3.3079,-3.312,-3.3142,-3.312,-3.3134,-3.3166,-3.3151,-3.3178,-3.3185,-3.319,-3.323,-3.3235,-3.3218,-3.3231,-3.325,-3.3216,-3.325,-3.3246,-3.3208,-3.3198,-3.319,-3.3187,-3.3298,0,0,0,0,0,-3.3062,-3.3061,-3.3096,-3.3073,-3.308,-3.3114,-3.3116,-3.314,-3.3156,-3.3162,-3.3183,-3.3197,-3.3199,-3.3199,-3.3203,-3.3177,-3.3184,-3.3163,-3.3155,-3.3148,-3.3144,-3.3134,-3.3125,-3.3218,-3.3219,-3.3219,0,0,-3.3026,-3.3048,-3.3044,-3.306,-3.3074,-3.3072,-3.3119,-3.3113,-3.3112,-3.3161,-3.3151,-3.3167,-3.3185,-3.3167,-3.3159,-3.3177,-3.312,-3.3143,-3.3138,-3.3137,-3.3129,-3.312,-3.3112,-3.3216,-3.3216,-3.3217,0,0,-3.296,-3.2976,-3.296,-3.2975,-3.2996,-3.302,-3.3017,-3.3046,-3.3059,-3.305,-3.3088,-3.3087,-3.309,-3.3102,-3.3109,-3.3052,-3.308,-3.3052,-3.3011,-3.3,-3.2993,-3.2987,-3.2968,-3.296,-3.3048,-3.3048,-3.3048,0,-3.2912,-3.2911,-3.2948,-3.2942,-3.2948,-3.2996,-3.2981,-3.2992,-3.3013,-3.3017,-3.3037,-3.3044,-3.3059,-3.3045,-3.3032,-3.3035,-3.3033,-3.3049,-3.2991,-3.2985,-3.298,-3.2962,-3.2955,-3.3045,-3.3045,-3.3045,-3.3046,0,-3.2852,-3.285,-3.2835,-3.2857,-3.2862,-3.2851,-3.2887,-3.2888,-3.2913,-3.2935,-3.2927,-3.2948,-3.2958,-3.2957,-3.298,-3.2947,-3.2958,-3.2984,-3.3019,-3.2967,-3.2951,-3.2944,-3.304,-3.3041,-3.3042,-3.3043,0,0,-3.2741,-3.2788,-3.2781,-3.2793,-3.2823,-3.2822,-3.2814,-3.2826,-3.2827,-3.2841,-3.2836,-3.2839,-3.2865,-3.2872,-3.2898,-3.2889,-3.2845,-3.2916,-3.2917,-3.2903,-3.2812,-3.2793,-3.2784,-3.2864,-3.2863,-3.2862,-3.2811,0,-3.2681,-3.2671,-3.2707,-3.2687,-3.2688,-3.2734,-3.2728,-3.2746,-3.2767,-3.2771,-3.2794,-3.2796,-3.2829,-3.2834,-3.2828,-3.2851,-3.2827,-3.2856,-3.286,-3.286,-3.2854,-3.2776,-3.2754,-3.2705,-3.2805,-3.2804,-3.2803,0,-3.2608,-3.2622,-3.2603,-3.2637,-3.2638,-3.2632,-3.2648,-3.265,-3.2672,-3.2689,-3.2699,-3.273,-3.2726,-3.276,-3.2755,-3.2774,-3.2778,-3.2791,-3.279,-3.2791,-3.2828,-3.2775,-3.269,-3.2682,-3.2794,-3.2794,-3.2795,0,-3.2531,-3.2544,-3.2535,-3.2544,-3.2583,-3.2578,-3.2594,-3.2618,-3.2624,-3.2638,-3.2642,-3.2655,-3.2661,-3.267,-3.2704,-3.2726,-3.2696,-3.2733,-3.271,-3.2709,-3.2701,-3.2701,-3.2615,-3.2703,-3.2703,-3.2704,-3.2704,0,-3.246,-3.2447,-3.2502,-3.2496,-3.2484,-3.2526,-3.2512,-3.2533,-3.2555,-3.2555,-3.2596,-3.2595,-3.2639,-3.2644,-3.267,-3.2663,-3.2666,-3.2679,-3.2686,-3.2676,-3.2674,-3.2678,-3.2683,-3.2702,-3.2702,-3.2702,-3.2703,0,-3.237,-3.2406,-3.24,-3.244,-3.2449,-3.2438,-3.2472,-3.2469,-3.2495,-3.2494,-3.2497,-3.2536,-3.2544,-3.2579,-3.2594,-3.2612,-3.2597,-3.2611,-3.2589,-3.2594,-3.257,-3.2572,-3.2484,-3.2475,-3.2569,-3.2568,-3.2567,0,-3.2322,-3.2314,-3.2353,-3.2357,-3.2372,-3.2377,-3.2384,-3.2427,-3.2433,-3.246,-3.2454,-3.2465,-3.2476,-3.2486,-3.2517,-3.2529,-3.2544,-3.2513,-3.2546,-3.2537,-3.2545,-3.2545,-3.2545,-3.2505,-3.2504,-3.2503,-3.2502,0,-3.2233,-3.2253,-3.2262,-3.228,-3.2288,-3.2303,-3.232,-3.2321,-3.2368,-3.2373,-3.2383,-3.2392,-3.2409,-3.242,-3.2439,-3.2456,-3.2487,-3.2492,-3.2487,-3.2476,-3.2464,-3.2471,-3.257,-3.2493,-3.2494,-3.2495,-3.2495,-3.2495,-3.2163,-3.2159,-3.2188,-3.2198,-3.2216,-3.2233,-3.2233,-3.226,-3.2269,-3.2288,-3.2313,-3.2319,-3.2345,-3.2373,-3.2388,-3.2394,-3.2412,-3.2405,-3.2403,-3.2401,-3.2396,-3.2464,-3.2398,-3.2398,-3.2398,-3.2399,-3.2399,0,-3.2078,-3.2099,-3.2109,-3.2133,-3.2142,-3.2173,-3.2195,-3.22,-3.2206,-3.2228,-3.224,-3.2252,-3.2264,-3.2297,-3.2313,-3.2312,-3.2326,-3.2314,-3.2314,-3.2318,-3.2379,-3.2382,-3.2302,-3.2302,-3.2302,-3.2302,-3.2302,-3.2302,-3.2034,-3.203,-3.2053,-3.2059,-3.2081,-3.2089,-3.2099,-3.2115,-3.2133,-3.2146,-3.2157,-3.2179,-3.2206,-3.2225,-3.2238,-3.2247,-3.2251,-3.2235,-3.2249,-3.2304,-3.2314,-3.2322,-3.2325,-3.2235,-3.2235,-3.2188,-3.2187,-3.2187]}]]